DELTA 1 DEB, 10647

Orbit data source: Space-Track

DELTA 1 DEB, 10647 is space debris in SSO originally from a launch on Thu, 29 Jul 1976 UTC launched from the Air Force Western Test Range (AFWTR). Debris objects in space refer to the collection of defunct objects orbiting the Earth. Examples of debris include non-operational satellites, rocket bodies, and fragments generated from explosions, collisions, or faulty payload assembly.

Loading next visibility...
Identifier
10647, 1976-077H
Orbit
SSO
Country
Flag of USUS
Related business
Manufacturer
Unknown
Mission
Spacecraft
Bus & Motor
Unknown
Mass
Unknown
Launch date (UTC)
1976-07-29 (50 years ago)
Launch vehicle
Unknown
Launch site
Air Force Western Test Range (AFWTR)
Object type
Payload
Rocket body
Debris
Shape & HBR
Unknown shape, 0.1 m
Radar Cross Section
Medium (>0.1 m² and <1 m²)

Expand to show TLE details & history
Last TLE update: 1 day ago

TLE from 1 day ago
0 DELTA 1 DEB
1 10647U 76077H   26072.19735227  .00000019  00000-0  66557-3 0  9990
2 10647 102.7513 170.8558 0164562 289.5651  98.1405 12.11313477194600
Epoch: 2026-03-13T04:44Z
TLE epoch observation values (Epoch: 2026-03-13T04:44:11.236Z)
Latitude
28.81202°
Longitude
-78.14308°
Altitude
1,654.582 km
Speed
7.039 km/s
True Right ascension
10h 54m 57s
True Declination
28° 40' 60"
Sunlit
Object was in full shadow at epoch
Visualization orbit readout
Latitude
Unknown
Longitude
Unknown
Altitude
Unknown
Speed
Unknown
Apparent Right ascension
Unknown
Apparent Declination
Unknown
Sunlit
N/A
Visualization observer readout
Local Sidereal Time
16:53:24
Azimuth
Unknown
Elevation
Unknown
Doppler factor
Unknown
Orbital elements
Apogee altitude
1,760.014 km
Perigee altitude
1,496.504 km
Semi-major axis
8,006.396 km
Eccentricity
0.01646
Inclination
102.7513°
RAAN
170.8558°
Arg. of periapsis
289.5651°
True anomaly
100.00149°
Mean anomaly
98.1405°
Eccentric anomaly
99.07158°
Mean motion
3.02962 °/min
Orbital period
118.83 mins
BSTAR
0.00066557
Loading maneuver chart data...
Computing Atmospheric mass density...
Loading historical data...
Loading historical data...
Loading historical data...
Loading historical data...
Loading historical data...
Loading historical data...
Loading historical data...

Documentation

Showing up to 5 results
|